| time (UTC) | temp C | wind direction | speed KPH | gust KPH | rain 1hr cm | rain 24hr cm | rain mn cm | humidity % | barometer mb |
| 20260506044517 | 20 | 191 | 0.0 | 17.7 | 0.00 | 0.00 | 0.00 | 58 | 1010.9 |
| 20260506043015 | 19 | 69 | 1.6 | 11.3 | 0.00 | 0.00 | 0.00 | 57 | 1011.0 |
| 20260506041512 | 19 | 240 | 0.0 | 6.4 | 0.00 | 0.00 | 0.00 | 56 | 1011.0 |
| 20260506040012 | 18 | 176 | 0.0 | 9.7 | 0.00 | 0.00 | 0.00 | 56 | 1011.0 |
| 20260506034518 | 18 | 196 | 0.0 | 0.0 | 0.00 | 0.00 | 0.00 | 56 | 1011.0 |
| 20260506033008 | 18 | 196 | 0.0 | 3.2 | 0.00 | 0.00 | 0.00 | 56 | 1010.9 |
| 20260506031507 | 18 | 183 | 0.0 | 1.6 | 0.00 | 0.00 | 0.00 | 55 | 1010.9 |
| 20260506030024 | 18 | 275 | 0.0 | 0.0 | 0.00 | 0.00 | 0.00 | 55 | 1010.9 |
| 20260506024513 | 18 | 275 | 0.0 | 0.0 | 0.00 | 0.00 | 0.00 | 53 | 1011.0 |
| 20260506023011 | 18 | 250 | 0.0 | 3.2 | 0.00 | 0.00 | 0.00 | 53 | 1011.0 |
| 20260506021505 | 19 | 260 | 0.0 | 12.9 | 0.00 | 0.00 | 0.00 | 50 | 1011.0 |
| 20260506020004 | 20 | 210 | 0.0 | 0.0 | 0.00 | 0.00 | 0.00 | 47 | 1010.9 |
| 20260506014504 | 20 | 210 | 0.0 | 0.0 | 0.00 | 0.00 | 0.00 | 45 | 1010.9 |
| 20260506013007 | 21 | 211 | 0.0 | 1.6 | 0.00 | 0.00 | 0.00 | 44 | 1010.8 |
| 20260506011503 | 21 | 211 | 0.0 | 9.7 | 0.00 | 0.00 | 0.00 | 43 | 1010.5 |
| 20260506010009 | 21 | 232 | 0.0 | 3.2 | 0.00 | 0.00 | 0.00 | 42 | 1010.2 |
| 20260506004504 | 21 | 232 | 0.0 | 6.4 | 0.00 | 0.00 | 0.00 | 41 | 1010.0 |
| 20260506003002 | 22 | 190 | 1.6 | 6.4 | 0.00 | 0.00 | 0.00 | 39 | 1010.0 |
| 20260506001600 | 22 | 182 | 0.0 | 6.4 | 0.00 | 0.00 | 0.00 | 39 | 1009.9 |
| 20260505234600 | 22 | 222 | 0.0 | 8.0 | 0.00 | 0.00 | 0.00 | 40 | 1009.7 |
| 20260505233058 | 23 | 186 | 0.0 | 14.5 | 0.00 | 0.00 | 0.00 | 41 | 1009.5 |
| 20260505231557 | 23 | 221 | 0.0 | 9.7 | 0.00 | 0.00 | 0.00 | 40 | 1009.4 |
| 20260505230104 | 23 | 198 | 0.0 | 11.3 | 0.00 | 0.00 | 0.00 | 40 | 1009.4 |
| 20260505224555 | 24 | 225 | 4.8 | 19.3 | 0.00 | 0.00 | 0.00 | 38 | 1009.4 |
| 20260505223107 | 24 | 217 | 3.2 | 9.7 | 0.00 | 0.00 | 0.00 | 38 | 1009.7 |
| 20260505221552 | 25 | 186 | 0.0 | 12.9 | 0.00 | 0.00 | 0.00 | 37 | 1009.5 |
| 20260505220052 | 25 | 232 | 3.2 | 19.3 | 0.00 | 0.00 | 0.00 | 35 | 1009.4 |
| 20260505214647 | 26 | 250 | 3.2 | 25.7 | 0.00 | 0.00 | 0.00 | 37 | 1009.2 |
| 20260505213054 | 26 | 223 | 4.8 | 24.1 | 0.00 | 0.00 | 0.00 | 34 | 1009.3 |
| 20260505211542 | 26 | 227 | 3.2 | 17.7 | 0.00 | 0.00 | 0.00 | 36 | 1009.3 |
| 20260505210040 | 26 | 213 | 4.8 | 14.5 | 0.00 | 0.00 | 0.00 | 35 | 1009.3 |
| 20260505204539 | 26 | 175 | 1.6 | 16.1 | 0.00 | 0.00 | 0.00 | 35 | 1009.3 |
| 20260505203044 | 26 | 251 | 1.6 | 16.1 | 0.00 | 0.00 | 0.00 | 38 | 1009.3 |
| 20260505201530 | 26 | 229 | 1.6 | 16.1 | 0.00 | 0.00 | 0.00 | 38 | 1009.4 |
| 20260505200034 | 27 | 219 | 3.2 | 17.7 | 0.00 | 0.00 | 0.00 | 34 | 1009.5 |
| 20260505194526 | 27 | 216 | 3.2 | 22.5 | 0.00 | 0.00 | 0.00 | 35 | 1009.6 |
| 20260505193023 | 27 | 221 | 9.7 | 20.9 | 0.00 | 0.00 | 0.00 | 35 | 1009.8 |
| 20260505191520 | 27 | 228 | 4.8 | 22.5 | 0.00 | 0.00 | 0.00 | 38 | 1009.9 |
| 20260505190021 | 27 | 238 | 3.2 | 16.1 | 0.00 | 0.00 | 0.00 | 38 | 1010.2 |
| 20260505184522 | 27 | 195 | 3.2 | 12.9 | 0.00 | 0.00 | 0.00 | 39 | 1010.3 |
| 20260505183013 | 27 | 236 | 3.2 | 14.5 | 0.00 | 0.00 | 0.00 | 39 | 1010.4 |
| 20260505181509 | 27 | 223 | 3.2 | 30.6 | 0.00 | 0.00 | 0.00 | 35 | 1010.7 |
| 20260505180007 | 27 | 200 | 3.2 | 19.3 | 0.00 | 0.00 | 0.00 | 39 | 1010.9 |
| 20260505174503 | 27 | 216 | 6.4 | 19.3 | 0.00 | 0.00 | 0.00 | 36 | 1011.0 |
| 20260505173005 | 27 | 180 | 4.8 | 12.9 | 0.00 | 0.00 | 0.00 | 39 | 1011.2 |
| 20260505171559 | 27 | 268 | 4.8 | 17.7 | 0.00 | 0.00 | 0.00 | 40 | 1011.3 |
| 20260505170057 | 27 | 278 | 4.8 | 14.5 | 0.00 | 0.00 | 0.00 | 44 | 1011.4 |
| 20260505164602 | 26 | 200 | 3.2 | 20.9 | 0.00 | 0.00 | 0.00 | 42 | 1011.7 |
| 20260505163059 | 26 | 225 | 4.8 | 17.7 | 0.00 | 0.00 | 0.00 | 40 | 1011.9 |
| 20260505161551 | 26 | 252 | 1.6 | 11.3 | 0.00 | 0.00 | 0.00 | 40 | 1011.9 |
| 20260505153057 | 25 | 219 | 1.6 | 12.9 | 0.00 | 0.00 | 0.00 | 45 | 1012.0 |
| 20260505151548 | 25 | 229 | 1.6 | 14.5 | 0.00 | 0.00 | 0.00 | 46 | 1012.0 |
| 20260505124504 | 16 | 221 | 0.0 | 8.0 | 0.00 | 0.00 | 0.00 | 70 | 1013.1 |
| 20260505123107 | 16 | 178 | 0.0 | 9.7 | 0.00 | 0.00 | 0.00 | 72 | 1013.2 |
| 20260505121557 | 15 | 196 | 0.0 | 3.2 | 0.00 | 0.00 | 0.00 | 73 | 1013.1 |
| 20260505120053 | 15 | 265 | 0.0 | 11.3 | 0.00 | 0.00 | 0.00 | 74 | 1012.9 |
| 20260505114550 | 14 | 192 | 0.0 | 3.2 | 0.00 | 0.00 | 0.00 | 75 | 1012.8 |
| 20260505113049 | 14 | 150 | 0.0 | 0.0 | 0.00 | 0.00 | 0.00 | 74 | 1012.7 |
| 20260505111553 | 13 | 197 | 0.0 | 1.6 | 0.00 | 0.00 | 0.00 | 79 | 1012.5 |
| 20260505101537 | 11 | 197 | 0.0 | 0.0 | 0.00 | 0.00 | 0.00 | 81 | 1011.7 |
| 20260505100042 | 11 | 197 | 0.0 | 0.0 | 0.00 | 0.00 | 0.00 | 80 | 1011.7 |
| 20260505094535 | 11 | 197 | 0.0 | 0.0 | 0.00 | 0.00 | 0.00 | 80 | 1011.7 |
| 20260505093034 | 11 | 197 | 0.0 | 0.0 | 0.00 | 0.00 | 0.00 | 81 | 1011.6 |
| 20260505091549 | 11 | 197 | 0.0 | 0.0 | 0.00 | 0.00 | 0.00 | 82 | 1011.6 |
| 20260505090049 | 11 | 197 | 0.0 | 0.0 | 0.00 | 0.00 | 0.00 | 83 | 1011.6 |
| 20260505084536 | 11 | 197 | 0.0 | 0.0 | 0.00 | 0.00 | 0.00 | 83 | 1011.6 |
| 20260505083132 | 11 | 197 | 0.0 | 0.0 | 0.00 | 0.00 | 0.00 | 83 | 1011.7 |
| 20260505081548 | 11 | 197 | 0.0 | 0.0 | 0.00 | 0.00 | 0.00 | 83 | 1011.5 |
| 20260505080038 | 11 | 197 | 0.0 | 0.0 | 0.00 | 0.00 | 0.00 | 83 | 1011.5 |
| 20260505074527 | 11 | 197 | 0.0 | 0.0 | 0.00 | 0.00 | 0.00 | 81 | 1011.4 |
| 20260505073025 | 11 | 197 | 0.0 | 0.0 | 0.00 | 0.00 | 0.00 | 83 | 1011.3 |
| 20260505071527 | 12 | 197 | 0.0 | 0.0 | 0.00 | 0.00 | 0.00 | 80 | 1011.2 |
| 20260505070025 | 13 | 197 | 0.0 | 0.0 | 0.00 | 0.00 | 0.00 | 77 | 1011.3 |
| 20260505064517 | 13 | 197 | 0.0 | 0.0 | 0.00 | 0.00 | 0.00 | 79 | 1011.2 |
| 20260505063016 | 14 | 197 | 0.0 | 0.0 | 0.00 | 0.00 | 0.00 | 73 | 1011.3 |
| 20260505061524 | 13 | 197 | 0.0 | 0.0 | 0.00 | 0.00 | 0.00 | 75 | 1011.5 |
| 20260505060014 | 13 | 197 | 0.0 | 0.0 | 0.00 | 0.00 | 0.00 | 74 | 1011.7 |